Location: Albany
(35.0170°S, 117.8920°E)
Time: 03:20:35
(UTC+08:00)

Vanguard 1 - Pass Details

Date: 28 January 2021
Orbit: 649 x 3833 km, 34.2° (Epoch: 26 February)

Event Time Altitude Azimuth Distance (km) Brightness Sun altitude
Rises 20:14:52 0° 346° (NNW) 6,738 14.2 -11.1°
Reaches altitude 10° 20:24:04 10° 11° (N) 4,819 13.2 -12.7°
Maximum altitude 20:27:59 12° 29° (NNE) 4,231 12.8 -13.3°
Enters shadow 20:28:37 12° 32° (NNE) 4,164 12.7 -13.4°
Drops below altitude 10° 20:31:20 10° 48° (NE) 3,988 - -13.9°
Sets 20:36:49 0° 78° (ENE) 4,309 - -14.8°
